GOCH CYXU-CYXU

Flight info

Callsign GOCH
Flight time 0h 10m
Altitude 1900
Route CYXU/33 CIRCUITS
Aircraft P28A/L-SG/C

Departure

Time 2026-04-19 23:32
Airport London International Airport (CYXU)

Arrival

Time 2026-04-19 23:43
Airport London International Airport (CYXU)
Time Latitude Longitude Altitude Speed Heading
2026-04-19 23:21 43.02919 -81.14831 905 ft 0 kts 286°
2026-04-19 23:28 43.02937 -81.14817 905 ft 7 kts 78°
2026-04-19 23:29 43.02901 -81.14741 906 ft 12 kts 160°
2026-04-19 23:29 43.02842 -81.14658 907 ft 13 kts 142°
2026-04-19 23:29 43.02758 -81.14553 908 ft 19 kts 131°
2026-04-19 23:29 43.02653 -81.14434 909 ft 21 kts 146°
2026-04-19 23:30 43.02539 -81.14286 907 ft 24 kts 139°
2026-04-19 23:30 43.02403 -81.14133 904 ft 26 kts 134°
2026-04-19 23:30 43.02315 -81.13978 905 ft 17 kts 57°
2026-04-19 23:30 43.02345 -81.13928 904 ft 0 kts 51°
2026-04-19 23:31 43.02348 -81.13923 904 ft 8 kts 49°
2026-04-19 23:31 43.02429 -81.13855 906 ft 15 kts 329°
2026-04-19 23:31 43.02488 -81.13923 905 ft 37 kts 320°
2026-04-19 23:31 43.02837 -81.14338 941 ft 90 kts 318°
2026-04-19 23:32 43.03388 -81.15015 1009 ft 119 kts 320°
2026-04-19 23:32 43.04051 -81.15790 1166 ft 129 kts 317°
2026-04-19 23:32 43.04713 -81.16608 1410 ft 124 kts 319°
2026-04-19 23:32 43.05324 -81.17370 1715 ft 112 kts 319°
2026-04-19 23:33 43.06053 -81.17537 1839 ft 122 kts 21°
2026-04-19 23:33 43.06611 -81.16667 2067 ft 124 kts 49°
2026-04-19 23:33 43.07098 -81.15600 1983 ft 135 kts 53°
2026-04-19 23:33 43.07205 -81.14339 2034 ft 147 kts 108°
2026-04-19 23:34 43.06519 -81.13332 2103 ft 147 kts 144°
2026-04-19 23:34 43.05641 -81.12552 2076 ft 150 kts 146°
2026-04-19 23:34 43.04768 -81.11812 2121 ft 148 kts 151°
2026-04-19 23:34 43.03846 -81.11178 2146 ft 149 kts 154°
2026-04-19 23:35 43.02975 -81.10450 2166 ft 146 kts 141°
2026-04-19 23:35 43.02175 -81.09931 2353 ft 106 kts 190°
2026-04-19 23:35 43.01646 -81.10421 2197 ft 100 kts 236°
2026-04-19 23:35 43.01193 -81.11061 1929 ft 84 kts 237°
2026-04-19 23:36 43.00898 -81.11627 1722 ft 65 kts 278°
2026-04-19 23:36 43.01089 -81.12212 1482 ft 68 kts 314°
2026-04-19 23:36 43.01415 -81.12646 1326 ft 69 kts 322°
2026-04-19 23:36 43.01767 -81.13059 1237 ft 63 kts 319°
2026-04-19 23:37 43.02098 -81.13467 1123 ft 65 kts 321°
2026-04-19 23:37 43.02419 -81.13837 958 ft 56 kts 316°
2026-04-19 23:37 43.02694 -81.14167 910 ft 64 kts 319°
2026-04-19 23:37 43.03068 -81.14633 1146 ft 78 kts 320°
2026-04-19 23:38 43.03458 -81.15155 1454 ft 79 kts 314°
2026-04-19 23:38 43.03793 -81.15701 1785 ft 71 kts 314°
2026-04-19 23:38 43.04120 -81.16190 2079 ft 67 kts 320°
2026-04-19 23:38 43.04551 -81.16647 1994 ft 93 kts 345°
2026-04-19 23:39 43.05009 -81.16484 1826 ft 110 kts 36°
2026-04-19 23:39 43.05377 -81.15646 1996 ft 111 kts 52°
2026-04-19 23:39 43.05675 -81.14632 2007 ft 117 kts 73°
2026-04-19 23:39 43.05412 -81.13565 2032 ft 132 kts 133°
2026-04-19 23:40 43.04389 -81.12619 2007 ft 134 kts 150°
2026-04-19 23:40 43.03602 -81.12036 2097 ft 130 kts 144°
2026-04-19 23:40 43.03057 -81.11481 1607 ft 155 kts 142°
2026-04-19 23:40 43.02377 -81.10781 2000 ft 124 kts 140°
2026-04-19 23:41 43.01612 -81.10003 1742 ft 117 kts 155°
2026-04-19 23:41 43.00932 -81.10126 1755 ft 100 kts 221°
2026-04-19 23:41 43.00628 -81.10818 1646 ft 87 kts 288°
2026-04-19 23:41 43.01003 -81.11451 1415 ft 88 kts 317°
2026-04-19 23:42 43.01341 -81.12020 1506 ft 71 kts 297°
2026-04-19 23:42 43.01584 -81.12659 1294 ft 78 kts 308°
2026-04-19 23:42 43.01912 -81.13203 1120 ft 69 kts 317°
2026-04-19 23:42 43.02249 -81.13625 1025 ft 65 kts 318°
2026-04-19 23:43 43.02569 -81.14016 936 ft 53 kts 316°
2026-04-19 23:43 43.02795 -81.14287 912 ft 35 kts 320°
2026-04-19 23:43 43.02945 -81.14465 910 ft 5 kts 315°
2026-04-19 23:43 43.02947 -81.14467 910 ft 2 kts 315°
2026-04-19 23:44 43.02967 -81.14513 910 ft 9 kts 278°
2026-04-19 23:44 43.02936 -81.14588 908 ft 0 kts 230°
2026-04-19 23:44 43.02933 -81.14593 908 ft 8 kts 232°
2026-04-19 23:44 43.02886 -81.14710 907 ft 16 kts 302°